| time (UTC) | temp F | wind direction | speed MPH | gust MPH | rain 1hr in | rain 24hr in | rain mn in | humidity % | barometer mb |
| 20260506135043 | 58 | 294 | 0.0 | 3.0 | 0.00 | 0.00 | 0.00 | 90 | 1010.8 |
| 20260506134043 | 58 | 294 | 1.0 | 2.0 | 0.00 | 0.00 | 0.00 | 90 | 1010.5 |
| 20260506133043 | 58 | 294 | 0.0 | 3.0 | 0.00 | 0.00 | 0.00 | 90 | 1010.5 |
| 20260506131113 | 58 | 291 | 0.0 | 3.0 | 0.00 | 0.00 | 0.00 | 89 | 1010.5 |
| 20260506130043 | 58 | 292 | 2.0 | 7.0 | 0.00 | 0.00 | 0.00 | 88 | 1010.3 |
| 20260506125043 | 59 | 286 | 1.0 | 4.0 | 0.00 | 0.00 | 0.00 | 87 | 1010.0 |
| 20260506124043 | 59 | 293 | 2.0 | 5.0 | 0.00 | 0.00 | 0.00 | 86 | 1009.9 |
| 20260506123043 | 59 | 291 | 0.0 | 5.0 | 0.00 | 0.00 | 0.00 | 86 | 1009.7 |
| 20260506122043 | 59 | 288 | 2.0 | 4.0 | 0.00 | 0.00 | 0.00 | 86 | 1009.7 |
| 20260506121043 | 59 | 294 | 1.0 | 4.0 | 0.00 | 0.00 | 0.00 | 86 | 1009.4 |
| 20260506120043 | 59 | 322 | 0.0 | 4.0 | 0.00 | 0.00 | 0.00 | 86 | 1009.0 |
| 20260506115043 | 59 | 232 | 2.0 | 3.0 | 0.00 | 0.00 | 0.00 | 86 | 1009.0 |
| 20260506114043 | 59 | 232 | 0.0 | 4.0 | 0.00 | 0.00 | 0.00 | 86 | 1008.6 |
| 20260506112043 | 59 | 299 | 0.0 | 5.0 | 0.00 | 0.00 | 0.00 | 85 | 1008.3 |
| 20260506111043 | 60 | 277 | 2.0 | 4.0 | 0.00 | 0.00 | 0.00 | 84 | 1008.2 |
| 20260506110113 | 60 | 277 | 0.0 | 4.0 | 0.00 | 0.00 | 0.00 | 84 | 1008.0 |
| 20260506105043 | 60 | 277 | 1.0 | 4.0 | 0.00 | 0.00 | 0.00 | 83 | 1007.9 |
| 20260506104043 | 60 | 259 | 1.0 | 7.0 | 0.00 | 0.00 | 0.00 | 84 | 1008.0 |
| 20260506103043 | 60 | 289 | 1.0 | 7.0 | 0.00 | 0.00 | 0.00 | 83 | 1007.5 |
| 20260506102043 | 60 | 222 | 3.0 | 4.0 | 0.00 | 0.00 | 0.00 | 83 | 1007.3 |
| 20260506101043 | 60 | 279 | 0.0 | 4.0 | 0.00 | 0.00 | 0.00 | 83 | 1007.3 |
| 20260506100113 | 60 | 262 | 0.0 | 3.0 | 0.00 | 0.00 | 0.00 | 83 | 1007.1 |
| 20260506095113 | 61 | 294 | 0.0 | 4.0 | 0.00 | 0.00 | 0.00 | 83 | 1007.0 |
| 20260506094113 | 61 | 288 | 0.0 | 5.0 | 0.00 | 0.00 | 0.00 | 83 | 1006.9 |
| 20260506093113 | 61 | 287 | 3.0 | 6.0 | 0.00 | 0.00 | 0.00 | 83 | 1006.8 |
| 20260506092043 | 61 | 215 | 1.0 | 3.0 | 0.00 | 0.00 | 0.00 | 83 | 1006.8 |
| 20260506091043 | 61 | 232 | 1.0 | 4.0 | 0.00 | 0.00 | 0.00 | 83 | 1006.9 |
| 20260506090043 | 61 | 231 | 4.0 | 4.0 | 0.00 | 0.00 | 0.00 | 83 | 1006.7 |
| 20260506085043 | 61 | 231 | 0.0 | 2.0 | 0.00 | 0.00 | 0.00 | 83 | 1006.6 |
| 20260506084043 | 61 | 231 | 0.0 | 3.0 | 0.00 | 0.00 | 0.00 | 83 | 1006.5 |
| 20260506083043 | 61 | 230 | 0.0 | 4.0 | 0.00 | 0.00 | 0.00 | 83 | 1006.2 |
| 20260506082043 | 62 | 284 | 1.0 | 3.0 | 0.00 | 0.00 | 0.00 | 83 | 1006.1 |
| 20260506080113 | 62 | 298 | 1.0 | 5.0 | 0.00 | 0.00 | 0.00 | 83 | 1006.1 |
| 20260506073043 | 62 | 290 | 1.0 | 7.0 | 0.00 | 0.00 | 0.00 | 81 | 1006.4 |
| 20260506072044 | 62 | 282 | 3.0 | 7.0 | 0.00 | 0.00 | 0.00 | 81 | 1006.4 |
| 20260506071043 | 62 | 296 | 1.0 | 4.0 | 0.00 | 0.00 | 0.00 | 81 | 1006.4 |
| 20260506062044 | 65 | 218 | 1.0 | 5.0 | 0.00 | 0.00 | 0.00 | 82 | 1005.4 |
| 20260506061044 | 65 | 283 | 1.0 | 7.0 | 0.00 | 0.00 | 0.00 | 82 | 1005.5 |
| 20260506051043 | 67 | 272 | 1.0 | 7.0 | 0.00 | 0.00 | 0.00 | 84 | 1005.4 |
| 20260506045113 | 68 | 230 | 2.0 | 3.0 | 0.00 | 0.00 | 0.00 | 83 | 1005.2 |
| 20260506044114 | 68 | 291 | 0.0 | 8.0 | 0.00 | 0.00 | 0.00 | 83 | 1005.3 |
| 20260506043114 | 69 | 272 | 1.0 | 7.0 | 0.00 | 0.00 | 0.00 | 83 | 1005.0 |
| 20260506042113 | 69 | 284 | 3.0 | 7.0 | 0.00 | 0.00 | 0.00 | 82 | 1004.8 |
| 20260506041114 | 70 | 211 | 1.0 | 7.0 | 0.00 | 0.00 | 0.00 | 82 | 1005.1 |
| 20260506040113 | 71 | 281 | 3.0 | 7.0 | 0.00 | 0.00 | 0.00 | 82 | 1005.0 |
| 20260506035114 | 72 | 279 | 3.0 | 7.0 | 0.00 | 0.00 | 0.00 | 82 | 1004.4 |
| 20260506034114 | 74 | 223 | 0.0 | 7.0 | 0.00 | 0.00 | 0.00 | 84 | 1004.6 |
| 20260506033113 | 74 | 295 | 3.0 | 5.0 | 0.00 | 0.00 | 0.00 | 89 | 1004.3 |
| 20260506031044 | 73 | 246 | 0.0 | 0.0 | 0.00 | 0.00 | 0.00 | 88 | 1003.2 |
| 20260506030114 | 74 | 246 | 0.0 | 1.0 | 0.00 | 0.00 | 0.00 | 88 | 1003.8 |
| 20260506025114 | 74 | 246 | 0.0 | 0.0 | 0.00 | 0.00 | 0.00 | 88 | 1003.6 |
| 20260506024044 | 74 | 246 | 0.0 | 0.0 | 0.00 | 0.00 | 0.00 | 88 | 1003.6 |
| 20260506023044 | 74 | 246 | 0.0 | 1.0 | 0.00 | 0.00 | 0.00 | 88 | 1003.5 |
| 20260506022114 | 75 | 246 | 0.0 | 1.0 | 0.00 | 0.00 | 0.00 | 87 | 1002.6 |
| 20260506021044 | 75 | 246 | 0.0 | 1.0 | 0.00 | 0.00 | 0.00 | 87 | 1003.0 |
| 20260506020114 | 75 | 246 | 0.0 | 1.0 | 0.00 | 0.00 | 0.00 | 86 | 1002.9 |
| 20260506015114 | 75 | 246 | 0.0 | 2.0 | 0.00 | 0.00 | 0.00 | 86 | 1002.9 |
| 20260506013044 | 76 | 246 | 0.0 | 1.0 | 0.00 | 0.00 | 0.00 | 86 | 1002.7 |
| 20260506012114 | 76 | 246 | 0.0 | 1.0 | 0.00 | 0.00 | 0.00 | 86 | 1002.5 |
| 20260506011044 | 76 | 246 | 0.0 | 2.0 | 0.00 | 0.00 | 0.00 | 85 | 1002.6 |
| 20260506010114 | 76 | 246 | 0.0 | 2.0 | 0.00 | 0.00 | 0.00 | 85 | 1002.5 |
| 20260506005114 | 77 | 246 | 0.0 | 0.0 | 0.00 | 0.00 | 0.00 | 85 | 1002.2 |
| 20260506002044 | 78 | 248 | 0.0 | 0.0 | 0.00 | 0.00 | 0.00 | 83 | 1002.2 |
| 20260506001114 | 79 | 248 | 0.0 | 2.0 | 0.00 | 0.00 | 0.00 | 82 | 1002.2 |
| 20260505235044 | 80 | 219 | 0.0 | 1.0 | 0.00 | 0.00 | 0.00 | 81 | 1002.4 |
| 20260505234044 | 80 | 219 | 1.0 | 3.0 | 0.00 | 0.00 | 0.00 | 79 | 1002.5 |
| 20260505233044 | 80 | 219 | 1.0 | 5.0 | 0.00 | 0.00 | 0.00 | 77 | 1002.5 |
| 20260505232044 | 81 | 189 | 1.0 | 5.0 | 0.00 | 0.00 | 0.00 | 76 | 1002.2 |
| 20260505231114 | 81 | 207 | 0.0 | 6.0 | 0.00 | 0.00 | 0.00 | 76 | 1002.0 |
| 20260505225114 | 81 | 216 | 0.0 | 5.0 | 0.00 | 0.00 | 0.00 | 75 | 1002.1 |
| 20260505224044 | 81 | 242 | 2.0 | 6.0 | 0.00 | 0.00 | 0.00 | 75 | 1002.1 |
| 20260505223044 | 81 | 209 | 2.0 | 6.0 | 0.00 | 0.00 | 0.00 | 74 | 1002.1 |
| 20260505221114 | 82 | 251 | 4.0 | 5.0 | 0.00 | 0.00 | 0.00 | 76 | 1002.3 |
| 20260505220044 | 82 | 238 | 1.0 | 8.0 | 0.00 | 0.00 | 0.00 | 74 | 1002.2 |
| 20260505215114 | 82 | 242 | 1.0 | 6.0 | 0.00 | 0.00 | 0.00 | 74 | 1002.1 |
| 20260505214045 | 82 | 217 | 1.0 | 6.0 | 0.00 | 0.00 | 0.00 | 75 | 1002.4 |
| 20260505213044 | 82 | 160 | 5.0 | 9.0 | 0.00 | 0.00 | 0.00 | 74 | 1002.6 |
| 20260505212044 | 81 | 235 | 3.0 | 8.0 | 0.00 | 0.00 | 0.00 | 74 | 1002.7 |
| 20260505211044 | 81 | 210 | 1.0 | 6.0 | 0.00 | 0.00 | 0.00 | 74 | 1002.8 |
| 20260505210044 | 81 | 215 | 0.0 | 9.0 | 0.00 | 0.00 | 0.00 | 74 | 1002.9 |
| 20260505205044 | 82 | 216 | 4.0 | 11.0 | 0.00 | 0.00 | 0.00 | 73 | 1002.6 |
| 20260505204044 | 81 | 234 | 1.0 | 9.0 | 0.00 | 0.00 | 0.00 | 74 | 1002.8 |
| 20260505203044 | 80 | 252 | 1.0 | 9.0 | 0.00 | 0.00 | 0.00 | 75 | 1002.8 |
| 20260505202114 | 80 | 217 | 4.0 | 9.0 | 0.00 | 0.00 | 0.00 | 73 | 1002.6 |
| 20260505201044 | 81 | 217 | 1.0 | 10.0 | 0.00 | 0.00 | 0.00 | 73 | 1002.8 |
| 20260505200115 | 81 | 240 | 8.0 | 12.0 | 0.00 | 0.00 | 0.00 | 73 | 1002.7 |
| 20260505194114 | 81 | 156 | 5.0 | 10.0 | 0.00 | 0.00 | 0.00 | 75 | 1002.8 |
| 20260505193045 | 81 | 196 | 2.0 | 10.0 | 0.00 | 0.00 | 0.00 | 74 | 1002.9 |
| 20260505192044 | 82 | 216 | 2.0 | 13.0 | 0.00 | 0.00 | 0.00 | 71 | 1002.9 |
| 20260505191044 | 81 | 273 | 11.0 | 12.0 | 0.00 | 0.00 | 0.00 | 72 | 1002.8 |
| 20260505190044 | 81 | 165 | 2.0 | 15.0 | 0.00 | 0.00 | 0.00 | 75 | 1003.2 |
| 20260505185044 | 80 | 211 | 3.0 | 14.0 | 0.00 | 0.00 | 0.00 | 74 | 1002.9 |
| 20260505184044 | 80 | 158 | 6.0 | 8.0 | 0.00 | 0.00 | 0.00 | 76 | 1002.9 |
| 20260505183044 | 80 | 271 | 3.0 | 11.0 | 0.00 | 0.00 | 0.00 | 76 | 1003.1 |
| 20260505182045 | 80 | 234 | 1.0 | 9.0 | 0.00 | 0.00 | 0.00 | 75 | 1002.8 |
| 20260505180045 | 78 | 147 | 1.0 | 8.0 | 0.00 | 0.00 | 0.00 | 78 | 1002.7 |
| 20260505175045 | 78 | 227 | 2.0 | 10.0 | 0.00 | 0.00 | 0.00 | 78 | 1003.5 |
| 20260505174045 | 78 | 215 | 3.0 | 10.0 | 0.00 | 0.00 | 0.00 | 79 | 1003.5 |
| 20260505173045 | 77 | 174 | 0.0 | 10.0 | 0.00 | 0.00 | 0.00 | 81 | 1003.5 |
| 20260505171045 | 76 | 245 | 4.0 | 11.0 | 0.00 | 0.00 | 0.00 | 81 | 1003.4 |
| 20260505165045 | 75 | 248 | 2.0 | 7.0 | 0.00 | 0.00 | 0.00 | 83 | 1003.6 |
| 20260505164045 | 74 | 238 | 2.0 | 10.0 | 0.00 | 0.00 | 0.00 | 84 | 1003.6 |
| 20260505162045 | 74 | 224 | 0.0 | 11.0 | 0.00 | 0.00 | 0.00 | 84 | 1003.5 |
| 20260505152045 | 72 | 196 | 1.0 | 7.0 | 0.00 | 0.00 | 0.00 | 85 | 1003.7 |
| 20260505151045 | 72 | 227 | 1.0 | 6.0 | 0.00 | 0.00 | 0.00 | 85 | 1003.8 |